SPOT 7 (40053 NORAD) Tracking and Keplerian Element Data

This shows tracking and keplerian element data for the satellite.

Feedback or suggestion? Click here.




ElementValue
Catalog40053
NameSPOT 7
Epoch Orbit38569
Epoch Day270.06893935
Epoch Year2021
RAAN336.3461
Inclination98.2086
Eccentricity0.0001145
Argument of Perigee75.8427
Mean Anonmoly284.2905
Mean Motion14.58548551
Decay Rate-1.4E-07
L11 40053U 14034A 21270.06893935 -.00000014 00000-0 68548-5 0 9991
L22 40053 98.2086 336.3461 0001145 75.8427 284.2905 14.58548551385694

Live tracking and technical data element details for SPOT 7 (NORAD 40053). SPOT 7 can be tracked NOW for your location showing map with azimuth and elevation plus other details from your city location.

Track the satellite on the map from your city or location and see movement details for azimuth, elevation, latitude, longitude, range, height, and movement on the map or in text.







IsCatalogInMostPopularTable: catalog: 40053, numindb: 539
Update: records affected: 1



GetName: 40053 SPOT 7

Hit Count: updated at: Tue, 28 Sep 2021 17:29:35 GMT